Location: Mount Nemo Observatory
(43.4112°N, 79.8736°W)
Time: 22:15:29
(UTC-04:00)

Envisat - Visible Passes

Search period start: 19 June 2018 00:00
Search period end: 29 June 2018 00:00
Orbit: 764 x 766 km, 98.2° (Epoch: 19 June)

Date Brightness Start Highest point End Pass type
(mag) Time Alt. Az. Time Alt. Az. Time Alt. Az.
19 Jun 5.7 22:00:45 10° WSW 22:03:24 14° W 22:06:04 10° WNW visible
22 Jun 5.5 21:48:42 10° SW 21:52:07 18° W 21:55:33 10° NW visible
25 Jun 5.3 21:36:54 10° SW 21:40:51 23° W 21:44:49 10° NW visible
27 Jun 5.8 22:04:28 10° WSW 22:06:43 13° W 22:08:58 10° WNW visible
